Location: Malvern Link
(52.1333°N, 2.3000°W)
Time: 03:54:06
(UTC+00:00)

Cosmos 1805 - Pass Details

Date: 18 September 2020
Orbit: 524 x 531 km, 82.5° (Epoch: 22 October)

Event Time Altitude Azimuth Distance (km) Brightness Sun altitude
Exits shadow 20:35:20 71° 146° (SE) 567 3.1 -21.0°
Maximum altitude 20:35:38 77° 99° (E) 552 3.1 -21.1°
Drops below altitude 10° 20:39:35 10° 13° (NNE) 1,795 6.2 -21.6°
Sets 20:41:44 0° 12° (NNE) 2,691 7.1 -21.8°
